This demonstration page uses our WeatherBlox Daily Observations layout. Learn more.

Left ArrowRight Arrow

41.12389, -100.76542

Hourly Observations for July 31, 2016

Temp ( °F °C ) Dew Point ( °F °C ) Humidity (%) Winds ( mph kmh ) Pressure ( in mb ) Visibility ( mi km ) Precip ( " mm )
12:53 am 00:53 Clear 72 22.2 67 19.4 84 84 ESE 9 15 29.82 1010 10 16 0.00 0.00
1:53 am 01:53 Clear 69 20.6 67 19.4 93 93 ESE 9 15 29.81 1009 10 16 0.00 0.00
2:53 am 02:53 Clear 69 20.6 67 19.4 93 93 E 8 13 29.80 1009 10 16 0.00 0.00
3:53 am 03:53 Partly Cloudy 68 20 67 19.4 96 96 ENE 5 7 29.80 1009 9 14 0.00 0.00
4:53 am 04:53 Mostly Clear 68 20 67 19.4 96 96 NE 14 22 29.80 1009 8 13 0.00 0.00
5:11 am 05:11 Mostly Cloudy 69 20.6 67 19.4 93 93 NE 16 26 29.80 1009 10 16 0.00 0.00
5:53 am 05:53 Cloudy 67 19.4 63 17.2 87 87 E 16 26 29.81 1010 10 16 0.00 0.00
6:48 am 06:48 Cloudy 66 19 63 17 88 88 ESE 12 19 29.77 1008 10 16 0.00 0.00
6:53 am 06:53 Mostly Cloudy 67 19.4 63 17.2 87 87 ESE 12 19 29.80 1009 10 16 0.00 0.00
7:53 am 07:53 Sunny 68 20 64 17.8 87 87 ESE 13 20 29.79 1009 10 16 0.00 0.00
8:53 am 08:53 Sunny 70 21.1 65 18.3 84 84 ESE 14 22 29.80 1009 10 16 0.00 0.00
9:53 am 09:53 Sunny 72 22.2 66 18.9 82 82 ESE 15 24 29.82 1010 10 16 0.00 0.00
10:36 am 10:36 Mostly Cloudy 75 24 66 19 74 74 SSE 12 19 29.74 1007 10 16 0.00 0.00
10:53 am 10:53 Mostly Cloudy 76 24.4 67 19.4 74 74 SE 13 20 29.80 1009 10 16 0.00 0.00
11:18 am 11:18 Partly Cloudy 76 24.4 67 19.4 74 74 SSE 14 22 29.71 1006 10 16 0.00 0.00
11:53 am 11:53 Partly Cloudy 81 27.2 68 20 65 65 SSE 13 20 29.79 1009 10 16 0.00 0.00
12:53 pm 12:53 Sunny 83 28.3 68 20 61 61 SE 10 17 29.77 1008 10 16 0.00 0.00
1:53 pm 13:53 Sunny 86 30 69 20.6 57 57 SE 10 17 29.76 1008 10 16 0.00 0.00
2:53 pm 14:53 Sunny 87 30.6 70 21.1 57 57 SSE 9 15 29.75 1008 10 16 0.00 0.00
3:53 pm 15:53 Sunny 90 32.2 71 21.7 54 54 SE 9 15 29.74 1007 10 16 0.00 0.00
4:53 pm 16:53 Sunny 90 32.2 72 22.2 56 56 SE 9 15 29.72 1007 10 16 0.00 0.00
5:53 pm 17:53 Sunny 89 31.7 72 22.2 57 57 SE 12 19 29.71 1006 10 16 0.00 0.00
6:53 pm 18:53 Sunny 85 29.4 74 23.3 70 70 ESE 14 22 29.71 1006 10 16 0.00 0.00
7:53 pm 19:53 Sunny 82 27.8 73 22.8 74 74 ESE 13 20 29.73 1007 10 16 0.00 0.00
8:53 pm 20:53 Sunny 78 25.6 73 22.8 85 85 ESE 8 13 29.74 1007 10 16 0.00 0.00
9:53 pm 21:53 Clear 75 23.9 72 22.2 90 90 E 6 9 29.77 1008 10 16 0.00 0.00
10:53 pm 22:53 Clear 75 23.9 72 22.2 90 90 ESE 3 6 29.78 1009 10 16 0.00 0.00
11:53 pm 23:53 Mostly Clear 74 23.3 72 22.2 94 94 NE 6 9 29.79 1009 10 16 0.00 0.00

Powered by AerisWeather